Location: Unspecified
(0.0000°N, 0.0000°E)
Time: 13:20:50
(UTC+00:00)

Hubble Space Telescope - Pass Details

Date: 20 September 2019
Orbit: 536 x 540 km, 28.5° (Epoch: 17 September)

Event Time Altitude Azimuth Distance (km) Brightness Sun altitude
Rises 19:51:26 0° 228° (SW) 2,676 5.0 -29.5°
Reaches altitude 10° 19:53:48 10° 221° (SW) 1,783 3.8 -30.1°
Enters shadow 19:54:32 14° 216° (SW) 1,520 3.4 -30.3°
